Flag for Italy Weather past 2 weeks in Trieste, Italy

Now
59 °F

Passing clouds.


Feels Like: 57 °F
Forecast: 54 / 72 °F
Wind: 10 mph from Northeast

Location: Trieste

Current Time: May 24, 2015 at 6:23:02 AM

Latest Report: May 24, 2015 at 4:00 AM


Visibility: 6 mi

Pressure: 29.93 "Hg

Humidity: 57%

Dew point: 44 °F

Location of TriesteLocation

Historic Weather in Trieste — Graph

°F

Trieste temperature yesterday

Maximum temperature yesterday: 62 °F (at 6:00 PM)
Minimum temperature yesterday: 55 °F (at 9:00 AM)
Average temperature yesterday: 58 °F

Past Weeks' High & Low Weather Summary

 TemperatureHumidityPressure
High85 °F (May 10, 3:00 PM)95% (May 20, 10:00 PM)30.29 "Hg (May 20, 10:00 PM)
Low55 °F (May 23, 9:00 AM)35% (May 9, 4:00 PM)29.72 "Hg (May 15, 9:00 AM)
Average68 °F64%29.97 "Hg
* Reported May 9 4:00 AM — May 24 4:00 AM, Trieste, Weather by CustomWeather, © 2015

Note: Actual official high and low records may vary slightly from our data, if they occured in-between our weather recording intervals... More about our weather records

Advertising

Trieste weather history for previous 24 hours

 ConditionsComfort  
Time TempWeatherWind HumidityBarometerVisibility
4:00 AM
Sun, May 24
59 °FPassing clouds.10 mph57%29.93 "Hg6 mi
3:00 AM59 °FPassing clouds.10 mph58%29.94 "Hg6 mi
2:00 AM59 °FPassing clouds.8 mph60%29.94 "Hg6 mi
1:00 AM59 °FPassing clouds.10 mph65%29.93 "Hg6 mi
12:00 AM58 °FPassing clouds.8 mph68%29.93 "Hg6 mi
10:00 PM
Sat, May 23
60 °FPassing clouds.12 mph58%29.92 "Hg6 mi
9:00 PM60 °FPassing clouds.9 mph59%29.89 "Hg12 mi
8:00 PM61 °FPartly sunny.9 mph62%29.89 "Hg12 mi
7:00 PM61 °FOvercast.9 mph62%29.88 "Hg12 mi
6:00 PM62 °FOvercast.6 mph65%29.88 "Hg12 mi
5:00 PM60 °FOvercast.9 mph77%29.88 "Hg12 mi
4:00 PM59 °FOvercast.1 mph80%29.88 "Hg12 mi
3:00 PM58 °FLight rain. Overcast.1 mph86%29.90 "Hg12 mi
2:00 PM56 °FRain. Overcast.2 mph94%29.91 "Hg12 mi
1:00 PM57 °FRain. Overcast.No wind92%29.91 "Hg12 mi
12:00 PM56 °FRain. Overcast.No wind88%29.90 "Hg12 mi
11:00 AM56 °FLight rain. Overcast.No wind90%29.89 "Hg12 mi
10:00 AM55 °FLight rain. Overcast.No wind92%29.81 "Hg12 mi
9:00 AM55 °FLight rain. Overcast.No wind93%29.80 "Hg12 mi
8:00 AM56 °FLight rain. Overcast.No wind92%29.83 "Hg12 mi
7:00 AM56 °FOvercast.1 mph85%29.83 "Hg12 mi
Weather by CustomWeather, © 2015

See weather overviewHow to use our weather pages